Regional Weather Roundup
Issued by NWS

Home | Current Version | Previous Version | Graphics & Text | Print | Product List | Glossary On
Versions: 1 2 3 4 5 6 7 8 9 10 11 12 13 14 15 16 17 18 19 20 21 22 23 24 25 26 27 28 29 30 31 32 33 34 35 36 37 38 39 40 41 42 43 44 45 46 47 48 49 50
998
ASUS45 KBOI 192310
RWRID

IDAHO REGIONAL WEATHER ROUNDUP
NATIONAL WEATHER SERVICE BOISE ID
400 PM MST SUN FEB 19 2017

NOTE: "FAIR" INDICATES FEW OR NO CLOUDS BELOW 12000 FEET
WITH NO SIGNIFICANT WEATHER AND/OR OBSTRUCTIONS TO VISIBILITY

IDZ012-014-200000-
SOUTHWEST IDAHO


CITY           SKY/WX    TMP DP  RH WIND       PRES   REMARKS
BOISE          MOSUNNY   50  36  58 NW5       29.67S
CALDWELL       MOSUNNY   48  36  63 N8        29.68R
MOUNTAIN HOME  PTSUNNY   51  31  46 NW12      29.69R
$$

IDZ016-017-200000-
SOUTHCENTRAL IDAHO


CITY           SKY/WX    TMP DP  RH WIND       PRES   REMARKS
BURLEY         MOSUNNY   50  29  44 W14       29.69R
JEROME           N/A    N/A N/A N/A MISG      29.71R
TWIN FALLS     PTSUNNY   50  23  34 W28G39    29.69R
$$

IDZ019>023-200000-
SOUTHEAST IDAHO


CITY           SKY/WX    TMP DP  RH WIND       PRES   REMARKS
IDAHO FALLS    LGT SNOW  34  32  92 W24G39    29.74R FOG     WCI  21
POCATELLO      FLURRIES  35  32  88 SW8       29.73R WCI  29
REXBURG        CLOUDY    41  33  73 SW14      29.67R
$$

IDZ006-010-011-018-031-032-200000-
CENTRAL IDAHO MOUNTAINS


CITY           SKY/WX    TMP DP  RH WIND       PRES   REMARKS
MCCALL         CLOUDY    34  27  75 SE8       29.62R WCI  27
HAILEY         MOSUNNY   39  27  60 SW5       29.70R
STANLEY          N/A     30  27  88 VRB3      29.65R
SALMON         CLOUDY    45  21  39 SW12      29.55R
CHALLIS        CLOUDY    35  30  82 SE7       29.64R WCI  29
$$

IDZ002-004-006-007-026-200000-
NORTHERN IDAHO


CITY           SKY/WX    TMP DP  RH WIND       PRES   REMARKS
LEWISTON       PTSUNNY   48  37  65 CALM      29.58S
LOWELL           N/A     42  36  79 CALM      29.60R
COEUR D`ALENE  CLOUDY    37  35  92 CALM      29.57R
MULLAN PASS    LGT SNOW  27  27 100 VRB5G21   29.49R VSB 1   WCI  22
$$




USA.gov is the U.S. government's official web portal to all federal, state and local government web resources and services.